Weather History for Wolf Point, MT

Change the Weather History Date:

Saturday, October 22, 2011

  Actual Average Record
Temperature  
Mean Temperature 48 °F -  
Max Temperature 67 °F 55 °F 71 °F (1998)
Min Temperature 29 °F 27 °F 0 °F (2002)
Degree Days  
Heating Degree Days 17    
Cooling Degree Days 0    
Moisture  
Dew Point 33 °F    
Average Humidity 64    
Maximum Humidity 96    
Minimum Humidity 25    
Precipitation  
Precipitation 0.04 in 0.03 in 0.47 in (2012)
Month to date precipitation 0.94 0.63  
Year to date precipitation 18.21 11.31  
Sea Level Pressure  
Sea Level Pressure 29.95 in    
Wind  
Wind Speed 5 mph (West)    
Max Wind Speed 24 mph    
Max Gust Speed 32 mph    
Visibility 10 miles    
Events Rain    
T = Trace of Precipitation, MM = Missing Value Source: NWS Daily Summary

Daily Weather History Graph

Daily Weather History Graph

Search for Another Location

Airport:

Trip Planner

Search our weather history database for the weather conditions in past years. The results will help you decide how hot, cold, wet, or windy it might be!

Date:

Astronomy

Oct. 22, 2011 Rise Set
Actual Time 7:31 AM MDT 6:00 PM MDT
Civil Twilight 7:00 AM MDT 6:32 PM MDT
Nautical Twilight 6:23 AM MDT 7:08 PM MDT
Astronomical Twilight 5:47 AM MDT 7:44 PM MDT
Moon 2:10 AM MDT (10/22) 3:38 PM MDT (10/22)
Length of Visible Light 11h 32m
Length of Day
10h 29m
Waning Crescent, 23% of the Moon is Illuminated
Oct 22
Waning Crescent
Oct 26
New
Nov 2
First Quarter
Nov 10
Full
Nov 18
Last Quarter

Hourly Weather History & Observations

Time (MDT) Temp. Windchill Dew Point Humidity Pressure Visibility Wind Dir Wind Speed Gust Speed Precip Events Conditions
12:53 AM 35.1 °F - 32.0 °F 89% 30.04 in 10.0 mi Calm Calm - N/A   Clear
1:53 AM 33.1 °F 30.0 °F 30.0 °F 89% 30.02 in 10.0 mi NNE 3.5 mph - N/A   Clear
2:53 AM 35.6 °F - 32.0 °F 87% 29.97 in 10.0 mi Calm Calm - N/A   Mostly Cloudy
3:53 AM 33.1 °F - 30.0 °F 89% 29.99 in 10.0 mi Calm Calm - N/A   Clear
4:53 AM 33.1 °F - 30.9 °F 92% 29.99 in 10.0 mi Calm Calm - N/A   Clear
5:53 AM 32.0 °F - 30.2 °F 93% 29.94 in 10.0 mi Calm Calm - N/A   Clear
6:53 AM 28.9 °F - 28.0 °F 96% 29.99 in 10.0 mi Calm Calm - N/A   Mostly Cloudy
7:53 AM 35.1 °F - 32.0 °F 89% 29.99 in 10.0 mi Calm Calm - N/A   Overcast
8:53 AM 37.0 °F - 35.1 °F 93% 29.98 in 10.0 mi Calm Calm - N/A   Partly Cloudy
9:53 AM 45.0 °F 41.2 °F 39.0 °F 80% 29.98 in 10.0 mi WSW 6.9 mph - N/A   Scattered Clouds
10:53 AM 55.9 °F - 41.0 °F 57% 29.95 in 10.0 mi WSW 13.8 mph - N/A   Clear
11:53 AM 64.0 °F - 36.0 °F 35% 29.94 in 10.0 mi WNW 24.2 mph 29.9 mph N/A   Clear
12:53 PM 66.0 °F - 34.0 °F 30% 29.93 in 10.0 mi West 23.0 mph 32.2 mph N/A   Clear
1:53 PM 66.9 °F - 30.9 °F 26% 29.92 in 10.0 mi West 20.7 mph 28.8 mph N/A   Clear
2:53 PM 66.9 °F - 30.0 °F 25% 29.91 in 10.0 mi West 21.9 mph 28.8 mph N/A   Clear
3:53 PM 66.0 °F - 28.9 °F 25% 29.92 in 10.0 mi West 20.7 mph 32.2 mph N/A   Clear
4:53 PM 64.0 °F - 28.9 °F 27% 29.92 in 10.0 mi West 19.6 mph 26.5 mph N/A   Clear
5:53 PM 57.0 °F - 28.9 °F 34% 29.92 in 10.0 mi WNW 9.2 mph - N/A   Clear
6:53 PM 51.1 °F - 28.0 °F 41% 29.94 in 10.0 mi Calm Calm - N/A   Clear
7:53 PM 44.1 °F 42.5 °F 28.0 °F 53% 29.92 in 10.0 mi SSW 3.5 mph - N/A   Clear
8:53 PM 46.0 °F 41.9 °F 32.0 °F 58% 29.91 in 10.0 mi NW 8.1 mph - N/A   Overcast
9:53 PM 48.9 °F - 33.1 °F 54% 29.93 in 10.0 mi SW 6.9 mph - 0.00 in Rain Light Rain
10:53 PM 48.9 °F - 41.0 °F 74% 29.88 in 9.0 mi Calm Calm - 0.01 in Rain Light Rain
11:53 PM 46.0 °F - 43.0 °F 89% 29.88 in 10.0 mi Calm Calm - 0.03 in Rain Light Rain